Theta_e
322 322 321 321 320 320 319 319 319 316 317 316 316 316 315 316 317 316 315 312 312 313
321 321 321 321 321 320 320 319 318 318 317 315 315 315 314 315 316 314 315 314 313 314
320 320 321 321 319 320 320 317 317 317 316 316 315 314 314 315 315 313 314 314 311 311
320 320 320 319 319 319 318 317 316 316 316 315 314 315 315 316 314 312 313 306 308 306
319 319 318 318 318 318 317 316 316 316 315 314 314 315 315 314 310 310 305 303 302 302
317 317 317 318 317 316 316 314 314 314 314 312 311 311 312 312 308 308 305 303 303 299
315 315 316 317 315 314 315 313 314 313 311 306 305 303 302 300 302 303 300 299 299 295
315 315 314 313 312 313 313 312 308 301 300 298 298 296 295 295 297 295 294 291 291 292
308 308 307 307 305 300 299 297 296 296 296 293 290 291 295 294 292 291 290 289 288 286
300 300 298 296 295 294 294 293 293 293 292 291 291 294 294 292 290 290 290 288 287 285
293 292 291 292 292 290 291 291 291 290 290 290 290 294 292 290 289 288 288 287 286 286
290 289 289 289 289 287 289 287 287 287 287 288 288 293 291 288 286 285 285 285 285 285
289 289 289 288 287 286 287 286 287 286 286 286 287 291 291 288 286 284 283 283 283 284
288 288 288 286 286 286 286 286 286 285 285 286 287 289 290 289 286 286 283 283 282 282
Wind_Speed
22 14 15 15 12 12 12 11 13 13 13 13 12 12 10 8 9 9 9 11 10 9
20 20 17 17 15 12 12 9 10 13 14 12 13 13 12 10 10 10 11 11 10 7
21 20 18 14 16 16 12 10 12 12 12 12 13 12 12 10 10 10 9 8 8 7
17 18 17 15 15 16 13 13 13 13 13 12 13 12 12 12 11 12 10 6 9 8
17 16 16 16 16 15 15 13 14 13 12 12 12 12 13 12 10 11 9 8 7 6
17 16 18 18 15 13 14 13 12 12 13 11 11 12 12 12 11 11 10 9 9 8
17 17 17 15 13 14 15 14 13 13 11 9 9 9 8 8 7 7 7 7 8 9
16 14 12 12 13 13 13 12 10 8 7 7 8 7 9 7 7 7 7 5 5 6
10 11 12 12 11 9 8 7 8 8 9 8 4 9 11 10 7 7 7 8 5 6
9 10 9 8 9 8 9 7 7 7 7 7 6 12 13 11 7 8 7 8 8 6
7 7 7 8 8 8 6 8 8 7 8 7 6 13 14 12 7 6 6 7 8 8
7 9 8 8 9 5 8 6 5 6 7 7 5 14 15 11 6 6 6 5 6 8
7 9 8 8 8 3 5 7 7 7 5 7 8 13 15 10 6 7 5 4 5 9
6 9 10 7 4 6 7 7 7 8 5 6 7 10 13 13 6 6 6 5 4 2
Wind_Direction
206 206 209 205 201 205 205 206 199 197 201 202 195 198 195 202 209 207 212 217 217 223
205 204 206 206 202 204 203 202 190 190 198 195 198 196 193 205 206 203 211 225 227 220
203 204 206 199 200 203 199 186 185 188 193 195 199 198 197 205 207 200 214 218 194 197
201 203 200 202 201 200 192 185 187 188 192 196 198 197 201 207 201 206 215 185 189 196
197 193 194 202 202 194 193 185 189 191 195 197 199 196 200 199 196 199 197 194 175 188
195 192 198 200 195 190 187 185 188 189 197 196 195 191 195 197 194 199 195 182 187 184
193 195 196 195 189 182 187 187 192 194 195 185 181 187 184 182 175 180 169 171 177 164
193 191 183 180 181 186 187 190 187 167 166 168 175 182 168 164 162 160 150 145 144 158
166 166 170 173 177 165 163 152 148 163 161 162 150 156 151 148 150 147 159 152 145 121
161 167 170 150 146 152 155 138 149 138 130 131 133 152 145 141 138 156 151 147 145 148
143 139 135 137 143 128 130 137 134 129 129 136 144 148 144 135 133 133 140 153 160 161
132 134 133 129 124 105 120 114 116 128 133 130 142 149 147 131 119 122 145 153 156 163
137 130 122 123 121 96 117 124 126 122 118 130 140 147 153 138 132 133 141 147 171 183
121 121 122 114 93 113 107 105 103 106 104 111 130 153 155 158 157 157 158 169 178 158